Lincoln County, Oregon, United States
Lat: 44.65N, Lon: 123.85W
Wx Zone: ORZ004
Local Info
Past Weather Observations for Yesterday

NOTE: This archive is for the closest National Weather Service station to Lincoln County. Information may differ from the station used for current weather conditions.

Click here for Long-term Archive

Time Weather Temperature Dewpoint Humidity Pressure Winds Precip Visibility
23:55
Clear
50°F / 10°C 48°F / 9°C 94% 30.12 in
(1020 mb)
Calm - 7SM
23:35
Clear
52°F / 11°C 50°F / 10°C 94% 30.12 in
(1020 mb)
Calm - 7SM
23:15
Clear
52°F / 11°C 50°F / 10°C 94% 30.12 in
(1020 mb)
SE 3.5 mph
(SE 6 kph)
- 7SM
22:55
Clear
52°F / 11°C 48°F / 9°C 88% 30.12 in
(1020 mb)
Calm - 7SM
22:35
Clear
52°F / 11°C 50°F / 10°C 94% 30.12 in
(1020 mb)
N 4.6 mph
(N 7 kph)
- 7SM
22:15
Clear
54°F / 12°C 50°F / 10°C 88% 30.12 in
(1020 mb)
Calm - 7SM
21:55
Clear
54°F / 12°C 50°F / 10°C 88% 30.12 in
(1020 mb)
Calm - 7SM
21:35
Clear
54°F / 12°C 50°F / 10°C 88% 30.12 in
(1020 mb)
NNW 9.2 mph
(NNW 15 kph)
- 7SM
21:15
Clear
54°F / 12°C 50°F / 10°C 88% 30.12 in
(1020 mb)
NNW 6.9 mph
(NNW 11 kph)
- 7SM
20:55
Clear
54°F / 12°C 52°F / 11°C 94% 30.12 in
(1020 mb)
N 8.1 mph
(N 13 kph)
- 7SM
20:35
Clear
54°F / 12°C 52°F / 11°C 94% 30.12 in
(1020 mb)
NNW 8.1 mph
(NNW 13 kph)
- 7SM
20:15
Clear
54°F / 12°C 52°F / 11°C 94% 30.12 in
(1020 mb)
N 9.2 mph
(N 15 kph)
- 7SM
19:55
Clear
54°F / 12°C 52°F / 11°C 94% 30.12 in
(1020 mb)
N 10.4 mph
(N 17 kph)
- 7SM
19:35
Clear
55°F / 13°C 52°F / 11°C 88% 30.12 in
(1020 mb)
N 15 mph
(N 24 kph)
- 7SM
19:15
Clear
57°F / 14°C 52°F / 11°C 82% 30.12 in
(1020 mb)
NNW 16.1 mph
(NNW 26 kph)
- 10SM
18:55
Clear
57°F / 14°C 52°F / 11°C 82% 30.12 in
(1020 mb)
NNW 13.8 mph
(NNW 22 kph)
- 10SM
18:35
Clear
57°F / 14°C 52°F / 11°C 82% 30.12 in
(1020 mb)
NNW 13.8 mph
(NNW 22 kph)
- 7SM
18:15
Clear
59°F / 15°C 54°F / 12°C 82% 30.12 in
(1020 mb)
NNW 17.3 mph
(NNW 28 kph)
- 7SM
17:55
Clear
59°F / 15°C 54°F / 12°C 82% 30.09 in
(1019 mb)
NNW 19.6 mph
(NNW 32 kph)
- 7SM
17:35
Clear
59°F / 15°C 54°F / 12°C 82% 30.09 in
(1019 mb)
NNW 20.7 mph
(NNW 33 kph)
- 7SM
17:15
Clear
Hazy
59°F / 15°C 54°F / 12°C 82% 30.09 in
(1019 mb)
NNW 23 mph
(NNW 37 kph)
- 5SM
16:55
Clear
Hazy
59°F / 15°C 54°F / 12°C 82% 30.09 in
(1019 mb)
NNW 23 mph
(NNW 37 kph)
- 4SM
16:35
Clear
Hazy
61°F / 16°C 55°F / 13°C 83% 30.09 in
(1019 mb)
N 20.7 mph
(N 33 kph)
- 5SM
16:15
Clear
Hazy
61°F / 16°C 55°F / 13°C 83% 30.09 in
(1019 mb)
NNW 19.6 mph
(NNW 32 kph)
- 5SM
15:55
Clear
Hazy
61°F / 16°C 55°F / 13°C 83% 30.12 in
(1020 mb)
NNW 24.2 mph
(NNW 39 kph)
- 5SM
15:35
Clear
Hazy
61°F / 16°C 54°F / 12°C 77% 30.12 in
(1020 mb)
NNW 23 mph
(NNW 37 kph)
- 5SM
15:15
Clear
Hazy
61°F / 16°C 55°F / 13°C 83% 30.12 in
(1020 mb)
NNW 19.6 mph
(NNW 32 kph)
- 5SM
14:55
Clear
Hazy
61°F / 16°C 55°F / 13°C 83% 30.12 in
(1020 mb)
NNW 20.7 mph
(NNW 33 kph)
- 2 1/2SM
14:35
Clear
Hazy
61°F / 16°C 55°F / 13°C 83% 30.12 in
(1020 mb)
NNW 24.2 mph
(NNW 39 kph)
- 3SM
14:15
Clear
Hazy
63°F / 17°C 55°F / 13°C 77% 30.12 in
(1020 mb)
N 20.7 mph
(N 33 kph)
- 3SM
13:55
Clear
Hazy
63°F / 17°C 55°F / 13°C 77% 30.12 in
(1020 mb)
NNW 24.2 mph
(NNW 39 kph)
- 2 1/2SM
13:35
Clear
Hazy
63°F / 17°C 55°F / 13°C 77% 30.12 in
(1020 mb)
NNW 27.6 mph
(NNW 44 kph)
- 3SM
13:15
Clear
Hazy
61°F / 16°C 55°F / 13°C 83% 30.12 in
(1020 mb)
NNW 24.2 mph
(NNW 39 kph)
- 4SM
12:55
Clear
Hazy
63°F / 17°C 55°F / 13°C 77% 30.15 in
(1021 mb)
NNW 20.7 mph
(NNW 33 kph)
- 4SM
12:35
Clear
63°F / 17°C 55°F / 13°C 77% 30.15 in
(1021 mb)
NNW 18.4 mph
(NNW 30 kph)
- 7SM
12:15
Clear
63°F / 17°C 55°F / 13°C 77% 30.15 in
(1021 mb)
N 16.1 mph
(N 26 kph)
- 7SM
11:55
Clear
63°F / 17°C 55°F / 13°C 77% 30.15 in
(1021 mb)
NNW 17.3 mph
(NNW 28 kph)
- 10SM
11:35
Clear
63°F / 17°C 54°F / 12°C 73% 30.15 in
(1021 mb)
N 16.1 mph
(N 26 kph)
- 7SM
11:15
Clear
61°F / 16°C 54°F / 12°C 77% 30.15 in
(1021 mb)
NNW 13.8 mph
(NNW 22 kph)
- 7SM
10:55
Clear
61°F / 16°C 54°F / 12°C 77% 30.15 in
(1021 mb)
NNW 17.3 mph
(NNW 28 kph)
- 10SM
10:35
Clear
63°F / 17°C 55°F / 13°C 77% 30.15 in
(1021 mb)
NNW 13.8 mph
(NNW 22 kph)
- 10SM
10:15
Clear
61°F / 16°C 55°F / 13°C 83% 30.15 in
(1021 mb)
NNW 15 mph
(NNW 24 kph)
- 10SM
09:55
Clear
61°F / 16°C 55°F / 13°C 83% 30.15 in
(1021 mb)
NNW 11.5 mph
(NNW 19 kph)
- 10SM
09:35
Clear
59°F / 15°C 55°F / 13°C 88% 30.15 in
(1021 mb)
NNW 10.4 mph
(NNW 17 kph)
- 10SM
09:15
Mostly Cloudy
57°F / 14°C 55°F / 13°C 94% 30.15 in
(1021 mb)
NW 4.6 mph
(NW 7 kph)
- 10SM
08:55
Overcast
55°F / 13°C 55°F / 13°C 100% N/A NNW 5.8 mph
(NNW 9 kph)
- 10SM
08:35
Overcast
55°F / 13°C 54°F / 12°C 94% 30.18 in
(1022 mb)
NNW 4.6 mph
(NNW 7 kph)
- 7SM
08:15
Overcast
Fog And Mist
55°F / 13°C 54°F / 12°C 94% 30.18 in
(1022 mb)
NNW 6.9 mph
(NNW 11 kph)
- 3SM
07:55
Overcast
Fog And Mist
54°F / 12°C 54°F / 12°C 100% 30.18 in
(1022 mb)
NW 6.9 mph
(NW 11 kph)
- 1 3/4SM
07:35
Overcast
Fog And Mist
55°F / 13°C 54°F / 12°C 94% 30.18 in
(1022 mb)
NW 4.6 mph
(NW 7 kph)
- 5SM
07:15
Overcast
55°F / 13°C 54°F / 12°C 94% 30.15 in
(1021 mb)
NNW 3.5 mph
(NNW 6 kph)
- 7SM
06:55
Overcast
54°F / 12°C 54°F / 12°C 100% 30.15 in
(1021 mb)
Calm - 7SM
06:35
Overcast
Fog And Mist
54°F / 12°C 54°F / 12°C 100% 30.15 in
(1021 mb)
NNW 3.5 mph
(NNW 6 kph)
- 5SM
06:15
Overcast
Fog And Mist
54°F / 12°C 54°F / 12°C 100% 30.15 in
(1021 mb)
NNW 4.6 mph
(NNW 7 kph)
- 4SM
05:55
Overcast
Fog And Mist
54°F / 12°C 54°F / 12°C 100% 30.15 in
(1021 mb)
N 3.5 mph
(N 6 kph)
- 5SM
05:35
Overcast
Fog And Mist
54°F / 12°C 52°F / 11°C 94% 30.15 in
(1021 mb)
N 3.5 mph
(N 6 kph)
- 4SM
05:15
Overcast
Fog And Mist
52°F / 11°C 52°F / 11°C 100% 30.15 in
(1021 mb)
Calm - 1SM
04:55
Overcast
Fog And Mist
52°F / 11°C 52°F / 11°C 100% 30.15 in
(1021 mb)
N 4.6 mph
(N 7 kph)
- 1 1/2SM
04:35
Overcast
Fog And Mist
52°F / 11°C 52°F / 11°C 100% 30.15 in
(1021 mb)
NW 4.6 mph
(NW 7 kph)
- 4SM
04:15
Overcast
54°F / 12°C 54°F / 12°C 100% 30.15 in
(1021 mb)
NNW 3.5 mph
(NNW 6 kph)
- 7SM
03:55
Overcast
54°F / 12°C 54°F / 12°C 100% 30.15 in
(1021 mb)
N 4.6 mph
(N 7 kph)
- 7SM
03:35
Overcast
Fog And Mist
54°F / 12°C 54°F / 12°C 100% 30.15 in
(1021 mb)
N 5.8 mph
(N 9 kph)
- 3SM
03:15
Overcast
Fog And Mist
54°F / 12°C 54°F / 12°C 100% 30.15 in
(1021 mb)
NNW 4.6 mph
(NNW 7 kph)
- 5SM
02:55
Overcast
Fog And Mist
54°F / 12°C 54°F / 12°C 100% 30.15 in
(1021 mb)
NNW 3.5 mph
(NNW 6 kph)
- 4SM
02:35
Overcast
Fog And Mist
54°F / 12°C 54°F / 12°C 100% 30.15 in
(1021 mb)
Calm - 5SM
02:15
Overcast
Fog And Mist
54°F / 12°C 54°F / 12°C 100% 30.15 in
(1021 mb)
N 4.6 mph
(N 7 kph)
- 5SM
01:55
Overcast
54°F / 12°C 54°F / 12°C 100% 30.15 in
(1021 mb)
N 4.6 mph
(N 7 kph)
- 7SM
01:35
Overcast
Fog And Mist
54°F / 12°C 54°F / 12°C 100% 30.15 in
(1021 mb)
N 5.8 mph
(N 9 kph)
- 3SM
01:15
Overcast
Fog And Mist
54°F / 12°C 54°F / 12°C 100% 30.15 in
(1021 mb)
NNW 5.8 mph
(NNW 9 kph)
- 3SM
00:55
Overcast
Fog And Mist
54°F / 12°C 54°F / 12°C 100% 30.15 in
(1021 mb)
NNW 5.8 mph
(NNW 9 kph)
- 5SM
00:35
Overcast
Fog And Mist
54°F / 12°C 54°F / 12°C 100% 30.15 in
(1021 mb)
N 4.6 mph
(N 7 kph)
- 1 1/2SM
00:15
Overcast
Fog And Mist
54°F / 12°C 54°F / 12°C 100% 30.15 in
(1021 mb)
N 4.6 mph
(N 7 kph)
- 3SM
Time Weather Temperature Dewpoint Humidity Pressure Winds Precip Visibility


Weather for websites

WeatherForYou.com, LLC is not responsible for any damages or problems caused by this service. Current weather conditions are obtained from the closest station including government and personal stations which may have varying degrees of accuracy. Weather forecasts are derived from the NOAA NDFD. Like all things, this site belongs to Jesus Christ... He just trusts me to maintain it. If you have any questions or comments email webmaster@weatherforyou.com

Copyright © 2014, WeatherForYou.com LLC. All rights reserved.